EW4055 Weather Reports


Display with metric or nautical units.
time (UTC)temp
F
wind
direction
speed
MPH
gust
MPH
rain 1hr
in
rain 24hr
in
rain mn
in
humidity
%
barometer
mb
20260506032720 57 223 1.0 3.0 0.00 0.06 0.00 90 1012.0
20260506032346 57 223 1.0 3.0 0.00 0.06 0.00 90 1012.0
20260506030722 57 223 1.0 3.0 0.00 0.06 0.00 90 1012.1
20260506025722 57 247 0.0 1.0 0.00 0.06 0.00 89 1012.0
20260506024721 57 247 0.0 2.0 0.00 0.06 0.00 89 1012.1
20260506023722 57 247 1.0 4.0 0.00 0.06 0.00 89 1012.3
20260506022719 57 148 1.0 2.0 0.00 0.06 0.00 89 1012.3
20260506021718 58 235 2.0 3.0 0.00 0.06 0.00 88 1012.5
20260506020720 58 159 0.0 2.0 0.00 0.06 0.00 88 1012.5
20260506020357 58 159 1.0 3.0 0.00 0.06 0.00 88 1012.7
20260506014716 58 159 2.0 3.0 0.00 0.06 0.00 88 1012.8
20260506013718 58 168 1.0 2.0 0.00 0.06 0.00 87 1012.7
20260506012716 58 99 2.0 4.0 0.00 0.06 0.00 87 1012.8
20260506011718 58 152 0.0 0.0 0.00 0.06 0.00 87 1012.8
20260506010714 58 152 0.0 3.0 0.00 0.06 0.00 88 1012.9
20260506005719 58 142 2.0 3.0 0.00 0.06 0.00 87 1012.9
20260506004716 58 248 0.0 3.0 0.00 0.06 0.00 87 1013.0
20260506003720 58 281 0.0 2.0 0.00 0.06 0.00 87 1013.2
20260506002718 58 204 0.0 3.0 0.00 0.06 0.00 87 1013.1
20260506001717 58 152 2.0 3.0 0.00 0.06 0.00 87 1013.0
20260506000714 59 141 2.0 3.0 0.00 0.06 0.00 86 1013.1
20260506000340 59 179 2.0 3.0 0.00 0.06 0.00 86 1013.5
20260505235359 59 165 1.0 3.0 0.00 0.06 0.00 86 1013.5
20260505234200 59 223 0.0 2.0 0.00 0.06 0.00 86 1013.8
20260505233828 59 130 1.0 3.0 0.00 0.06 0.00 86 1013.8
20260505231713 59 155 0.0 1.0 0.00 0.06 0.00 86 1014.1
20260505230717 59 155 0.0 2.0 0.00 0.06 0.00 86 1014.1
20260505225714 59 155 0.0 1.0 0.00 0.06 0.00 85 1014.1
20260505224713 60 155 0.0 1.0 0.00 0.06 0.00 85 1014.0
20260505223714 60 183 0.0 1.0 0.00 0.06 0.00 85 1014.1
20260505222713 60 183 1.0 3.0 0.00 0.06 0.00 84 1014.2
20260505222417 60 138 1.0 2.0 0.00 0.06 0.00 84 1014.2
20260505220711 60 138 0.0 2.0 0.00 0.06 0.00 84 1014.2
20260505215710 60 138 1.0 2.0 0.00 0.06 0.06 83 1014.2
20260505215343 60 138 1.0 3.0 0.00 0.06 0.06 83 1014.2
20260505213718 60 140 0.0 3.0 0.00 0.06 0.06 84 1014.2
20260505212710 60 140 0.0 4.0 0.00 0.06 0.06 84 1014.4
20260505211708 60 148 2.0 5.0 0.00 0.06 0.06 84 1014.6
20260505211449 60 94 2.0 3.0 0.00 0.06 0.06 84 1014.6
20260505210551 60 62 2.0 3.0 0.00 0.06 0.06 84 1014.7
20260505204711 60 86 3.0 4.0 0.00 0.06 0.06 84 1014.8
20260505204415 60 82 2.0 3.0 0.00 0.06 0.06 84 1014.6
20260505202707 60 58 3.0 4.0 0.00 0.06 0.06 84 1014.6
20260505201816 60 97 2.0 3.0 0.00 0.06 0.06 83 1014.5
20260505201724 60 58 2.0 4.0 0.00 0.06 0.06 83 1014.6
20260505200350 60 85 4.0 6.0 0.00 0.06 0.06 83 1014.5
20260505195838 60 94 3.0 5.0 0.00 0.06 0.06 83 1014.6
20260505194419 60 82 1.0 4.0 0.00 0.06 0.06 83 1014.5
20260505192714 60 82 2.0 5.0 0.00 0.06 0.06 82 1014.2
20260505191710 61 96 1.0 4.0 0.00 0.06 0.06 82 1014.2
20260505190709 61 90 3.0 6.0 0.00 0.06 0.06 82 1014.0
20260505185708 61 80 4.0 6.0 0.00 0.06 0.06 82 1013.9
20260505184709 61 257 1.0 4.0 0.00 0.06 0.06 81 1013.9
20260505183705 62 228 1.0 4.0 0.00 0.06 0.06 81 1013.9
20260505182707 62 148 2.0 6.0 0.00 0.06 0.06 81 1013.7
20260505181708 62 118 4.0 6.0 0.00 0.06 0.06 80 1013.8
20260505180704 63 107 4.0 5.0 0.00 0.06 0.06 80 1013.7
20260505175705 63 127 1.0 2.0 0.00 0.06 0.06 79 1013.8
20260505174705 64 127 0.0 3.0 0.00 0.06 0.06 78 1013.7
20260505173705 64 172 1.0 2.0 0.00 0.06 0.06 78 1013.6
20260505172704 64 186 1.0 4.0 0.00 0.06 0.06 77 1013.6
20260505172401 65 137 2.0 5.0 0.00 0.06 0.06 77 1013.7
20260505170706 65 109 1.0 5.0 0.00 0.06 0.06 77 1013.7
20260505165705 65 131 2.0 4.0 0.00 0.06 0.06 76 1013.7
20260505164704 65 118 0.0 4.0 0.00 0.06 0.06 76 1013.6
20260505163708 65 94 3.0 5.0 0.00 0.06 0.06 76 1013.6
20260505162706 66 107 3.0 5.0 0.00 0.06 0.06 76 1013.8
20260505162409 66 97 3.0 6.0 0.00 0.06 0.06 74 1014.0
20260505160709 67 118 2.0 4.0 0.00 0.06 0.06 73 1013.9
20260505160453 68 231 0.0 2.0 0.00 0.06 0.06 69 1014.1
20260505152704 68 0 0.0 1.0 0.00 0.06 0.06 69 1014.0
20260505151704 68 0 0.0 3.0 0.00 0.06 0.06 68 1014.1
20260505150703 69 157 0.0 0.0 0.00 0.06 0.06 66 1014.1
20260505150334 69 157 0.0 2.0 0.00 0.06 0.06 64 1014.2
20260505124659 70 116 2.0 7.0 0.00 0.06 0.06 69 1014.7
20260505123659 70 175 1.0 3.0 0.00 0.06 0.06 68 1014.7
20260505122701 69 145 1.0 3.0 0.00 0.06 0.06 72 1014.7
20260505121657 68 252 1.0 3.0 0.00 0.06 0.06 71 1014.9
20260505120712 68 102 2.0 3.0 0.00 0.06 0.06 72 1015.0
20260505115656 67 104 2.0 2.0 0.00 0.06 0.06 76 1014.9
20260505115240 66 217 0.0 3.0 0.00 0.06 0.06 74 1015.0
20260505113657 65 0 0.0 1.0 0.00 0.06 0.06 75 1015.0
20260505112657 65 0 0.0 2.0 0.00 0.06 0.06 74 1015.0
20260505111655 65 0 0.0 4.0 0.00 0.06 0.06 74 1015.0
20260505110656 65 317 1.0 4.0 0.00 0.06 0.06 74 1015.1
20260505101655 63 86 2.0 5.0 0.00 0.06 0.06 78 1015.2
20260505100657 63 151 1.0 4.0 0.00 0.06 0.06 81 1015.3
20260505095658 62 317 0.0 2.0 0.00 0.06 0.06 85 1015.3
20260505094653 61 175 1.0 3.0 0.00 0.06 0.06 85 1015.2
20260505093701 60 78 1.0 5.0 0.00 0.06 0.06 84 1015.4
20260505092658 60 97 2.0 4.0 0.00 0.06 0.06 85 1015.2
20260505091658 60 124 3.0 5.0 0.00 0.06 0.06 88 1015.2
20260505090653 60 123 2.0 5.0 0.00 0.06 0.06 89 1015.3
20260505090434 60 137 2.0 5.0 0.00 0.06 0.06 90 1015.3
20260505084652 59 118 2.0 4.0 0.01 0.06 0.06 91 1015.2
20260505083654 59 82 2.0 4.0 0.02 0.06 0.06 91 1015.1
20260505082655 58 145 1.0 4.0 0.02 0.06 0.06 90 1015.2
20260505081651 58 107 1.0 3.0 0.03 0.06 0.06 90 1015.3
20260505080653 58 85 2.0 3.0 0.04 0.06 0.06 90 1015.2
20260505075651 58 90 1.0 2.0 0.04 0.02 0.06 90 1015.3
20260505074651 58 147 1.0 2.0 0.04 0.02 0.05 90 1015.3
20260505074311 58 233 0.0 1.0 0.03 0.02 0.05 89 1015.4
20260505073623 57 123 0.0 2.0 0.02 0.02 0.03 89 1015.3
20260505073612 57 233 0.0 3.0 0.02 0.02 0.04 89 1015.4
20260505071308 57 86 0.0 1.0 0.01 0.02 0.02 89 1015.3
20260505065650 57 241 1.0 2.0 0.01 0.02 0.02 88 1015.2
20260505065254 57 140 0.0 1.0 0.00 0.02 0.02 88 1015.3
20260505063653 58 140 0.0 2.0 0.00 0.02 0.02 88 1015.2
20260505062655 57 140 0.0 2.0 0.00 0.02 0.02 88 1015.1
20260505061650 57 140 1.0 4.0 0.01 0.02 0.02 87 1015.2
20260505060653 57 94 3.0 4.0 0.01 0.02 0.02 87 1014.9
20260505055651 56 233 2.0 3.0 0.01 0.01 0.02 87 1015.0
20260505054654 57 233 1.0 2.0 0.01 0.01 0.02 87 1015.0
20260505053648 57 233 1.0 3.0 0.01 0.01 0.02 86 1015.0
20260505053254 57 275 0.0 1.0 0.02 0.01 0.02 86 1014.9
20260505051649 57 275 0.0 1.0 0.01 0.01 0.01 85 1015.0
20260505050649 57 275 1.0 2.0 0.01 0.01 0.01 84 1014.9
20260505041647 59 257 2.0 3.0 0.00 0.00 0.00 75 1015.0
20260505040657 60 244 1.0 3.0 0.00 0.00 0.00 74 1015.0
20260505035647 60 240 1.0 5.0 0.00 0.00 0.00 70 1015.0
20260505034647 60 307 3.0 4.0 0.00 0.00 0.00 71 1014.8
20260505033645 60 300 2.0 4.0 0.00 0.00 0.00 71 1014.9